STARLINK-38077, 69983

Orbit data source: Space-Track

STARLINK-38077, 69983 is a payload satellite owned by SpaceX/Seattle (US) in SSO that was launched on Sat, 11 Jul 2026 UTC via an FALCON 9 launch vehicle from the Air Force Western Test Range (AFWTR). Payload-class satellites include a variety of spacecraft equipped with specific instruments for various scientific and technological missions. These include communications satellites like Starlink; space stations such as the ISS; scientific satellites like the Hubble; Earth observation satellites from companies like Planet Labs, Umbra, and HawkEye 360; GPS; miniature CubeSats for education and research; and military/defense satellites.

Loading next visibility...
Identifier
69983, 2026-159J
Orbit
SSO
Country
Flag of USUS
Related business
Manufacturer
SpaceX/Seattle
Mission
Operational spacecraft
Bus & Motor
STARLINK V2MO, Unknown motor
Mass
575 kg wet, ~530 kg dry
Launch date (UTC)
2026-07-11 (1 month ago)
Launch vehicle
FALCON 9
Launch site
Air Force Western Test Range (AFWTR)
Object type
Payload
Rocket body
Debris
Shape & HBR
BOX + PAN, 17.7 m
Radar Cross Section
Large (>1 m²)

Expand to show TLE details & history
Last TLE update: 14 hours ago

TLE from 14 hours ago
0 STARLINK-38077
1 69983U 26159J   26228.52349720  .00142921  00000-0  94157-3 0  9998
2 69983  97.2846  68.9621 0001666 111.9022 248.2420 15.75227863  6969
Epoch: 2026-08-16T12:33Z
TLE epoch observation values (Epoch: 2026-08-16T12:33:50.158Z)
Latitude
-0.00005°
Longitude
-84.41568°
Altitude
347.567 km
Speed
7.7 km/s
True Right ascension
04h 35m 50s
True Declination
0° 00' 00"
Sunlit
Object was in daylight at epoch
Visualization orbit readout
Latitude
Unknown
Longitude
Unknown
Altitude
Unknown
Speed
Unknown
Apparent Right ascension
Unknown
Apparent Declination
Unknown
Sunlit
N/A
Visualization observer readout
Local Sidereal Time
16:51:19
Azimuth
Unknown
Elevation
Unknown
Doppler factor
Unknown
Orbital elements
Apogee altitude
341.99 km
Perigee altitude
339.751 km
Semi-major axis
6,719.007 km
Eccentricity
0.00017
Inclination
97.2846°
RAAN
68.9621°
Arg. of periapsis
111.9022°
True anomaly
248.22427°
Mean anomaly
248.242°
Eccentric anomaly
248.23314°
Mean motion
3.94081 °/min
Orbital period
91.35 mins
BSTAR
0.00094157
Loading maneuver chart data...
Computing Atmospheric mass density...
Loading historical data...
Loading historical data...
Loading historical data...
Loading historical data...
Loading historical data...
Loading historical data...
Loading historical data...

Documentation

Showing up to 5 results
|